Weather History for Stuart, FL

Change the Weather History Date:

Tuesday, February 4, 2014

  Actual Average Record
Temperature  
Mean Temperature 76 °F -  
Max Temperature 82 °F 74 °F 82 °F (2014)
Min Temperature 71 °F 52 °F 71 °F (2014)
Cooling Degree Days 12    
Growing Degree Days 26 (Base 50)    
Moisture  
Dew Point 67 °F    
Average Humidity 78    
Maximum Humidity 88    
Minimum Humidity 48    
Precipitation  
Precipitation 0.00 in - - ()
Sea Level Pressure  
Sea Level Pressure 30.10 in    
Wind  
Wind Speed 3 mph (SE)    
Max Wind Speed 16 mph    
Max Gust Speed 23 mph    
Visibility 9 miles    
Events      
Averages and records for this station are not official NWS values.
T = Trace of Precipitation, MM = Missing Value Source: NWS Daily Summary

Daily Weather History Graph

Daily Weather History Graph

Search for Another Location

Airport:

Trip Planner

Search our weather history database for the weather conditions in past years. The results will help you decide how hot, cold, wet, or windy it might be!

Date:

Astronomy

Feb. 04, 2014 Rise Set
Actual Time 7:05 AM EST 6:04 PM EST
Civil Twilight 6:40 AM EST 6:29 PM EST
Nautical Twilight 6:13 AM EST 6:56 PM EST
Astronomical Twilight 5:45 AM EST 7:24 PM EST
Moon 10:15 AM EST (2/4) 11:21 PM EST (2/4)
Length of Visible Light 11h 48m
Length of Day
10h 59m
Waxing Crescent, 29% of the Moon is Illuminated
Feb 4
Waxing Crescent
Feb 6
First Quarter
Feb 14
Full
Feb 22
Last Quarter
Mar 1
New

Hourly Weather History & Observations

Time (EST) Temp. Heat Index Dew Point Humidity Pressure Visibility Wind Dir Wind Speed Gust Speed Precip Events Conditions
12:15 AM 71.6 °F - 68.0 °F 88% 30.11 in 10.0 mi West 3.5 mph - N/A   Overcast
12:35 AM 71.6 °F - 68.0 °F 88% 30.11 in 10.0 mi Calm Calm - N/A   Overcast
12:55 AM 71.6 °F - 68.0 °F 88% 30.10 in 10.0 mi Calm Calm - N/A   Overcast
1:15 AM 71.6 °F - 68.0 °F 88% 30.10 in 10.0 mi West 3.5 mph - N/A   Overcast
1:35 AM 71.6 °F - 68.0 °F 88% 30.10 in 10.0 mi Calm Calm - N/A   Overcast
1:55 AM 71.6 °F - 66.2 °F 83% 30.10 in 10.0 mi Calm Calm - N/A   Overcast
2:15 AM 71.6 °F - 68.0 °F 88% 30.09 in 10.0 mi Calm Calm - N/A   Overcast
2:35 AM 71.6 °F - 68.0 °F 88% 30.09 in 10.0 mi Calm Calm - N/A   Overcast
2:55 AM 71.6 °F - 68.0 °F 88% 30.09 in 10.0 mi Calm Calm - N/A   Overcast
3:15 AM 71.6 °F - 68.0 °F 88% 30.08 in 10.0 mi Calm Calm - N/A   Overcast
3:35 AM 71.6 °F - 68.0 °F 88% 30.08 in 10.0 mi Calm Calm - N/A   Overcast
3:55 AM 71.6 °F - 68.0 °F 88% 30.08 in 10.0 mi Calm Calm - N/A   Overcast
4:15 AM 71.6 °F - 66.2 °F 83% 30.09 in 10.0 mi Calm Calm - N/A   Overcast
4:35 AM 71.6 °F - 66.2 °F 83% 30.09 in 10.0 mi Calm Calm - N/A   Overcast
4:55 AM 71.6 °F - 68.0 °F 88% 30.09 in 10.0 mi Calm Calm - N/A   Overcast
5:15 AM 71.6 °F - 66.2 °F 83% 30.09 in 10.0 mi Calm Calm - N/A   Overcast
5:35 AM 71.6 °F - 66.2 °F 83% 30.10 in 10.0 mi Calm Calm - N/A   Overcast
5:55 AM 71.6 °F - 66.2 °F 83% 30.10 in 10.0 mi Calm Calm - N/A   Overcast
6:15 AM 71.6 °F - 66.2 °F 83% 30.11 in 10.0 mi Calm Calm - N/A   Overcast
6:47 AM 71.6 °F - 68.0 °F 88% 30.12 in 7.0 mi Calm Calm - N/A   Mostly Cloudy
7:47 AM 71.6 °F - 68.0 °F 88% 30.13 in 7.0 mi Calm Calm - N/A   Mostly Cloudy
8:47 AM 77.0 °F - 69.8 °F 78% 30.15 in 7.0 mi South 4.6 mph - N/A   Mostly Cloudy
9:47 AM 78.8 °F - 69.8 °F 74% 30.16 in 7.0 mi ESE 4.6 mph - N/A   Mostly Cloudy
11:47 AM 82.4 °F 84.6 °F 66.2 °F 58% 30.14 in 7.0 mi SE 13.8 mph - N/A   Mostly Cloudy
12:47 PM 82.4 °F 84.6 °F 66.2 °F 58% 30.11 in 7.0 mi SE 13.8 mph 20.7 mph N/A   Mostly Cloudy
1:47 PM 82.4 °F 83.9 °F 64.4 °F 54% 30.08 in 7.0 mi SE 16.1 mph 23.0 mph N/A   Mostly Cloudy
2:47 PM 82.4 °F 82.9 °F 60.8 °F 48% 30.07 in 7.0 mi SSE 11.5 mph 20.7 mph N/A   Mostly Cloudy
4:47 PM 80.6 °F 81.8 °F 62.6 °F 54% 30.07 in 7.0 mi SE 13.8 mph - N/A   Mostly Cloudy
5:47 PM 77.0 °F - 66.2 °F 69% 30.09 in 7.0 mi SSE 10.4 mph - N/A   Scattered Clouds
6:47 PM 75.2 °F - 66.2 °F 73% 30.09 in 7.0 mi SSE 6.9 mph - N/A   Mostly Cloudy
8:15 PM 73.4 °F - 66.2 °F 78% 30.10 in 10.0 mi SE 3.5 mph - N/A   Scattered Clouds
8:35 PM 73.4 °F - 66.2 °F 78% 30.10 in 10.0 mi SSE 4.6 mph - N/A   Clear
8:55 PM 73.4 °F - 66.2 °F 78% 30.10 in 10.0 mi SSE 5.8 mph - N/A   Clear
9:15 PM 73.4 °F - 64.4 °F 73% 30.10 in 10.0 mi SE 4.6 mph - N/A   Clear
9:35 PM 73.4 °F - 64.4 °F 73% 30.10 in - SE 5.8 mph - N/A   Clear
9:55 PM 73.4 °F - 66.2 °F 78% 30.10 in - SE 6.9 mph - N/A   Clear
10:15 PM 73.4 °F - 66.2 °F 78% 30.10 in 10.0 mi SE 5.8 mph - N/A   Clear
10:35 PM 73.4 °F - 64.4 °F 73% 30.10 in 10.0 mi SE 5.8 mph - N/A   Clear
10:55 PM 73.4 °F - 66.2 °F 78% 30.10 in 10.0 mi SE 5.8 mph - N/A   Clear
11:15 PM 73.4 °F - 66.2 °F 78% 30.10 in 10.0 mi SE 5.8 mph - N/A   Clear
11:35 PM 73.4 °F - 64.4 °F 73% 30.10 in 10.0 mi SE 4.6 mph - N/A   Clear
11:55 PM 73.4 °F - 66.2 °F 78% 30.10 in 10.0 mi SSE 4.6 mph - N/A   Scattered Clouds